Temperature
5 5 6 6 6 6 7 7 7 7 7 7 7 7 7 8 8 7 7 7 7 7 7 7 7 7 7 7 7 6 6 6 6 6 6 6 6 6 6 6 6 6 6
4 5 5 5 5 6 6 6 6 7 7 7 7 7 7 7 7 7 7 7 7 7 7 7 7 7 7 6 6 6 6 6 6 6 6 6 6 5 5 5 5 5 5
3 4 4 4 5 5 5 6 6 6 6 6 6 6 6 6 7 7 6 6 6 6 6 6 7 6 6 6 6 6 6 6 6 5 5 5 5 5 5 5 5 5 5
3 3 4 4 4 4 5 5 5 6 6 6 6 6 6 6 6 6 6 6 6 6 6 6 6 6 6 6 6 6 5 5 5 5 5 5 5 5 4 4 4 4 4
2 2 3 3 3 4 4 4 5 5 5 5 5 5 5 5 5 5 6 6 6 6 6 6 5 6 5 5 5 5 5 5 5 5 5 4 4 4 4 4 4 4 4
1 2 2 3 3 3 3 3 4 4 4 5 5 5 5 5 5 5 5 5 5 5 5 5 5 5 5 5 5 5 5 4 4 4 4 4 4 4 4 3 3 3 3
0 1 1 2 2 2 3 3 3 3 4 4 4 4 4 4 5 5 4 4 4 4 4 4 4 4 4 4 4 4 4 4 4 4 3 3 3 3 3 3 3 2 2
-0 0 1 1 1 2 2 2 2 2 3 3 3 3 4 4 4 4 4 4 4 4 4 4 4 4 4 4 4 4 3 3 3 3 3 3 3 2 2 2 2 2 2
-1 -1 -0 0 1 1 1 1 2 2 2 2 2 2 3 3 3 3 3 3 3 3 3 3 3 3 3 3 3 3 3 3 3 3 2 2 2 2 2 1 1 1 1
-2 -1 -1 -1 -0 0 0 1 1 1 1 1 2 2 2 2 2 3 3 2 2 3 3 3 3 3 3 3 2 2 2 2 2 2 2 2 1 1 1 1 1 0 0
-3 -2 -2 -1 -1 -1 -0 -0 0 0 1 1 1 1 1 1 2 2 2 2 2 2 2 2 2 2 2 2 2 2 2 2 1 1 1 1 1 1 1 0 0 -0 -0
-3 -3 -2 -2 -2 -1 -1 -1 -1 -0 -0 -0 0 0 0 1 1 1 1 1 1 1 1 1 1 1 1 1 1 1 1 1 0 0 0 0 0 0 0 -0 -0 -0 -1
-4 -4 -3 -3 -3 -2 -2 -2 -1 -1 -1 -1 -1 -1 -0 -0 -0 0 0 0 0 0 0 0 0 0 0 0 0 0 0 0 -0 -0 -1 -1 -1 -1 -1 -1 -1 -1 -1
-5 -5 -4 -4 -3 -3 -3 -2 -2 -2 -2 -2 -2 -1 -1 -1 -1 -1 -1 -1 -1 -1 -0 -0 -0 -0 -0 -1 -1 -1 -1 -1 -1 -1 -1 -1 -1 -1 -1 -1 -2 -2 -2
-6 -5 -5 -5 -4 -4 -4 -3 -3 -2 -2 -2 -2 -2 -2 -2 -2 -1 -2 -1 -1 -1 -1 -1 -1 -1 -1 -1 -1 -1 -2 -2 -2 -2 -2 -2 -2 -2 -2 -2 -2 -2 -3
-6 -6 -6 -5 -5 -5 -4 -4 -3 -3 -3 -3 -3 -3 -3 -2 -2 -2 -2 -2 -2 -2 -2 -2 -2 -2 -2 -2 -2 -2 -2 -2 -2 -2 -2 -2 -2 -3 -3 -3 -3 -3 -3
-7 -6 -6 -6 -6 -5 -5 -5 -4 -4 -4 -3 -3 -3 -3 -3 -3 -3 -3 -3 -3 -3 -3 -3 -3 -3 -3 -3 -3 -3 -3 -3 -3 -3 -3 -3 -3 -3 -3 -3 -4 -4 -4
-7 -7 -6 -6 -6 -6 -6 -5 -5 -5 -4 -4 -4 -4 -4 -4 -3 -3 -3 -3 -3 -3 -3 -3 -3 -3 -3 -3 -3 -3 -3 -3 -3 -3 -4 -4 -4 -4 -4 -4 -4 -4 -5
-8 -7 -7 -7 -7 -6 -6 -6 -6 -6 -5 -5 -5 -5 -4 -4 -4 -4 -4 -4 -4 -4 -4 -4 -4 -4 -4 -4 -4 -4 -4 -4 -4 -4 -4 -4 -4 -4 -5 -5 -5 -5 -5
-8 -8 -8 -7 -7 -7 -7 -6 -6 -6 -6 -6 -6 -5 -5 -5 -5 -5 -5 -5 -4 -4 -4 -4 -4 -4 -4 -4 -4 -4 -4 -4 -5 -5 -5 -5 -5 -5 -5 -5 -5 -5 -6
-9 -8 -8 -8 -8 -8 -7 -7 -7 -7 -7 -7 -6 -6 -6 -6 -6 -6 -5 -5 -5 -5 -5 -5 -5 -5 -5 -5 -5 -5 -5 -5 -5 -5 -5 -5 -5 -5 -5 -5 -6 -6 -6
-9 -9 -9 -9 -8 -8 -8 -8 -8 -7 -7 -7 -7 -7 -7 -6 -6 -6 -6 -6 -6 -6 -6 -5 -5 -5 -5 -6 -6 -6 -6 -6 -6 -6 -6 -6 -6 -6 -6 -6 -6 -6 -6
-9 -9 -9 -9 -9 -9 -8 -8 -8 -8 -8 -8 -8 -7 -7 -7 -7 -7 -7 -6 -6 -6 -6 -6 -6 -6 -6 -6 -6 -6 -6 -6 -6 -6 -6 -6 -6 -6 -6 -6 -6 -7 -7
-10 -10 -10 -10 -9 -9 -9 -9 -9 -8 -8 -8 -8 -8 -8 -7 -7 -7 -7 -7 -7 -7 -7 -6 -6 -6 -6 -6 -6 -6 -7 -6 -6 -6 -6 -6 -6 -7 -7 -7 -7 -7 -7
-10 -10 -10 -10 -10 -10 -9 -9 -9 -9 -9 -9 -8 -8 -8 -8 -8 -8 -8 -7 -7 -7 -7 -7 -7 -7 -7 -7 -7 -7 -7 -7 -7 -7 -7 -7 -7 -7 -7 -7 -7 -7 -7
-11 -11 -10 -10 -10 -10 -10 -10 -9 -9 -9 -9 -9 -9 -9 -8 -8 -8 -8 -8 -8 -7 -7 -7 -7 -7 -7 -7 -7 -7 -7 -7 -7 -7 -7 -7 -7 -7 -7 -7 -7 -8 -8
Wind_Speed
2 2 2 2 3 5 6 6 6 6 7 7 8 9 8 8 9 8 8 8 8 7 7 7 7 6 5 5 5 5 5 5 6 4 3 3 4 4 3 4 5 5 5
2 2 2 2 3 4 5 5 5 6 6 7 7 8 8 8 8 9 9 8 9 9 8 8 8 6 7 5 5 6 6 6 5 6 4 3 4 4 4 4 4 5 6
3 1 2 2 3 3 4 5 5 5 6 6 7 7 8 8 8 8 8 8 8 8 8 8 8 8 8 6 6 6 5 4 5 5 4 3 3 3 4 4 4 5 6
4 2 1 2 3 3 3 4 4 5 6 6 6 7 7 7 7 7 7 8 8 7 7 8 8 8 8 7 6 7 5 5 5 5 4 3 3 3 4 4 4 4 4
4 3 2 2 2 2 2 3 3 4 5 5 5 5 6 5 5 6 6 7 7 7 6 6 7 7 7 6 6 6 6 5 5 5 5 4 4 3 4 4 4 5 5
5 3 3 2 1 1 1 2 3 3 4 5 5 5 5 5 5 6 6 6 6 7 6 6 5 6 6 7 6 7 7 7 6 6 6 6 7 5 4 4 4 4 4
5 4 3 2 1 1 1 2 3 3 4 4 5 5 6 5 6 7 6 6 6 6 6 5 4 5 6 6 6 6 6 6 7 7 7 8 7 6 5 5 5 5 6
6 4 3 2 2 1 1 1 2 2 3 4 4 5 5 5 7 7 7 6 5 5 6 6 6 5 5 5 5 5 5 5 6 6 6 6 5 5 5 5 5 5 4
7 6 4 3 2 2 2 2 2 2 2 3 3 4 5 5 7 7 7 5 4 5 5 5 5 5 6 6 5 5 4 3 3 5 5 4 4 4 4 3 3 4 5
8 7 5 4 3 2 2 2 2 2 2 2 3 3 4 4 6 7 7 4 5 4 4 4 5 5 6 6 6 5 5 4 3 3 3 4 4 5 5 5 5 5 4
9 7 6 4 3 3 2 2 2 2 2 2 2 2 3 4 5 7 7 5 5 4 4 4 4 5 6 6 5 4 5 4 3 3 3 3 2 2 3 4 4 4 5
8 6 5 4 4 2 2 2 2 2 2 2 2 2 1 2 3 5 6 5 4 4 4 4 3 6 6 6 4 4 4 3 2 3 3 3 3 2 2 2 3 3 4
7 6 5 4 3 2 2 2 1 2 2 2 2 2 2 1 2 3 4 4 4 3 2 3 4 5 5 4 5 5 4 3 3 3 3 3 3 2 2 2 2 2 3
6 6 5 4 3 2 2 2 1 1 2 2 2 2 2 1 1 2 2 2 3 2 2 3 4 4 3 3 4 3 2 3 3 4 3 2 2 2 2 2 2 2 2
6 5 5 4 3 2 2 2 2 2 2 2 2 2 2 2 2 2 2 2 2 2 3 2 2 2 2 2 2 2 2 2 3 3 2 2 2 2 2 2 2 2 3
5 5 4 4 3 2 2 2 3 2 3 3 2 2 1 1 2 3 3 3 3 4 3 3 3 3 3 3 3 2 2 2 2 2 3 3 3 3 3 2 3 3 4
6 5 4 4 3 2 2 1 2 3 3 3 2 1 1 1 1 2 3 3 4 4 2 3 3 3 3 2 2 3 3 2 2 3 3 3 3 3 3 3 3 3 4
6 6 5 4 3 2 2 1 1 1 1 2 2 2 2 2 2 1 3 3 2 2 1 2 2 2 2 2 2 2 2 2 2 3 3 3 3 3 4 4 4 4 4
6 5 4 4 3 2 2 1 1 1 1 2 2 2 2 2 2 2 2 1 1 1 1 1 2 2 2 2 2 2 3 3 3 3 3 3 4 4 4 5 4 5 5
5 7 5 3 3 2 2 1 1 1 1 1 2 2 2 2 1 1 1 1 0 1 1 1 2 2 2 2 2 2 3 3 3 3 3 4 4 4 5 5 5 5 5
5 5 6 3 3 2 2 2 1 1 1 1 2 2 2 1 1 1 1 1 1 1 1 1 2 2 2 2 2 3 3 3 3 3 3 4 4 4 4 4 5 5 5
5 4 4 3 3 2 2 2 1 1 1 2 2 2 2 1 1 1 1 1 1 1 1 2 2 2 2 3 3 3 4 4 4 4 4 4 4 5 5 5 4 4 5
4 4 4 3 3 3 3 2 2 1 1 2 2 2 2 1 1 1 1 2 2 2 2 2 2 2 2 3 3 4 4 4 4 4 4 5 5 5 5 5 6 6 6
4 4 4 4 3 3 2 2 2 2 2 2 2 2 2 2 2 2 2 2 2 2 2 2 3 3 4 4 4 4 5 5 5 5 6 6 6 5 5 5 6 6 6
4 4 4 4 3 3 3 3 2 2 2 2 2 2 2 2 2 2 3 3 3 3 3 3 3 4 4 5 5 6 7 7 8 7 6 6 6 6 6 6 6 6 6
4 4 4 3 3 3 3 3 3 3 3 3 3 2 3 3 3 3 3 3 3 3 3 4 4 5 5 6 6 7 8 8 9 8 7 6 6 6 6 6 6 6 6
Wind_Direction
265 231 217 215 213 203 201 201 199 196 193 194 194 193 192 193 193 194 197 194 198 201 202 207 210 207 207 208 210 216 221 227 242 253 248 245 245 248 255 252 254 257 254
299 252 229 215 210 206 201 202 197 196 195 195 193 193 193 195 194 195 197 198 201 203 204 205 209 206 210 211 212 218 222 223 232 242 242 240 248 250 255 257 261 258 259
327 285 234 220 212 211 206 200 196 196 195 194 192 194 195 195 195 199 201 202 205 207 207 207 208 206 211 211 212 218 222 221 227 235 242 240 245 246 252 258 260 263 264
334 318 267 240 225 220 214 202 197 194 192 193 195 196 195 193 195 197 200 202 203 206 211 211 210 210 213 211 213 216 215 215 219 226 234 235 238 240 242 248 259 261 266
325 316 296 278 247 226 218 206 197 192 192 191 192 193 193 193 194 195 198 202 202 203 207 212 214 212 213 212 209 210 207 212 217 223 229 233 233 231 239 243 253 265 267
317 316 313 302 275 242 229 205 194 190 190 188 190 190 193 199 188 191 198 200 203 203 205 208 209 207 209 211 212 212 209 211 217 227 234 235 238 240 244 243 251 262 263
323 317 317 310 291 278 279 211 199 198 192 189 191 194 200 200 186 188 196 199 200 202 203 203 204 206 205 209 206 206 215 223 228 230 235 240 242 237 235 241 244 253 262
332 326 322 317 301 287 283 234 216 212 202 199 197 199 201 199 190 189 189 200 205 205 205 204 203 205 205 202 202 208 219 227 229 231 237 245 248 239 233 243 249 260 271
333 329 328 318 296 280 280 266 235 225 215 212 207 203 202 201 191 188 187 195 199 205 207 206 204 205 194 189 195 204 217 232 227 222 236 241 235 232 232 233 238 250 264
328 323 321 318 296 279 278 278 252 230 216 207 207 208 207 206 189 187 190 192 195 201 202 203 206 206 191 189 198 204 216 224 214 213 218 224 226 222 221 229 233 240 255
322 321 319 316 306 289 287 285 254 223 207 200 195 201 205 203 193 192 194 196 195 196 201 203 203 193 190 192 201 210 209 213 216 219 226 228 228 224 225 235 242 238 243
321 321 318 316 312 305 299 290 255 207 190 195 191 186 203 200 194 195 198 201 195 198 205 204 196 183 187 191 199 192 188 200 209 214 223 230 231 233 241 245 249 254 259
325 325 320 317 314 312 302 290 259 217 197 199 202 200 200 203 189 181 190 190 192 202 202 186 175 172 181 190 185 184 196 210 209 214 222 230 236 241 241 250 251 255 272
324 324 321 320 322 327 318 299 277 247 218 207 211 213 210 206 197 187 190 179 168 163 162 155 151 154 169 175 179 193 215 216 216 223 226 229 228 229 233 238 244 249 262
324 321 321 321 325 340 341 325 296 288 271 253 235 222 217 226 225 224 212 199 195 178 160 160 165 168 173 180 189 194 202 212 219 218 217 222 227 233 246 254 255 254 253
324 325 323 322 323 323 326 343 1 335 341 326 309 279 283 276 221 213 203 186 178 174 168 177 179 184 192 198 203 209 213 220 222 221 221 223 226 228 237 246 251 246 251
328 325 322 320 319 314 311 317 336 1 15 14 8 7 25 104 169 188 169 161 166 167 172 181 189 193 201 210 217 223 231 226 221 221 226 228 228 231 236 240 242 246 251
329 327 323 318 317 312 307 310 311 319 340 353 11 36 52 72 82 109 142 136 155 158 171 188 197 199 203 213 223 233 239 234 226 228 231 233 230 233 238 241 241 244 249
330 329 326 326 327 321 319 330 337 338 338 339 350 10 35 56 63 73 108 136 163 177 186 201 209 210 217 223 230 236 239 240 239 235 238 240 237 236 240 241 243 244 249
329 334 330 332 332 330 335 342 342 347 345 343 340 345 358 17 28 28 29 45 151 212 221 225 228 226 227 229 230 231 237 242 244 244 242 243 243 240 240 240 241 243 247
326 329 334 333 332 333 331 327 324 327 322 322 327 346 345 343 349 355 351 333 284 258 246 243 247 245 241 239 237 232 234 242 244 247 247 245 245 246 245 243 244 245 248
327 330 333 332 329 328 325 321 321 318 317 314 321 337 348 351 354 334 322 314 310 294 274 256 252 251 246 243 240 238 238 241 243 244 249 251 249 248 247 243 242 245 245
333 332 332 333 330 328 328 327 320 309 304 308 317 331 342 345 336 318 309 309 307 298 290 270 259 259 259 254 247 241 242 245 246 245 247 250 251 250 246 244 243 247 247
329 327 326 325 324 323 320 317 315 309 306 309 317 324 324 321 314 312 310 307 303 298 293 281 263 255 259 261 256 248 246 248 248 245 245 246 252 254 248 244 246 248 249
327 324 321 318 315 314 313 311 307 304 302 300 301 303 303 303 302 304 306 303 300 295 293 287 273 263 257 257 259 259 257 255 256 253 246 246 251 254 251 247 246 249 247
324 319 314 310 308 306 303 300 298 297 293 290 288 287 288 289 290 293 296 293 294 293 292 285 279 276 272 266 263 264 265 264 263 258 253 250 250 251 250 247 244 243 243
Height
1472 1473 1475 1477 1480 1482 1485 1487 1490 1492 1494 1496 1499 1501 1503 1506 1508 1511 1513 1516 1518 1520 1522 1524 1526 1528 1529 1531 1532 1534 1535 1536 1536 1536 1537 1537 1537 1537 1537 1537 1536 1536 1535
1469 1471 1472 1474 1476 1479 1481 1483 1486 1488 1490 1492 1495 1497 1499 1502 1504 1507 1509 1511 1513 1515 1517 1519 1521 1523 1525 1526 1527 1529 1530 1531 1532 1532 1532 1532 1533 1533 1533 1533 1532 1532 1531
1466 1468 1469 1471 1473 1475 1477 1479 1481 1484 1486 1488 1490 1492 1495 1497 1499 1502 1504 1506 1508 1510 1512 1514 1516 1518 1519 1521 1522 1524 1525 1526 1527 1527 1527 1528 1528 1528 1528 1528 1528 1527 1527
1464 1465 1466 1468 1470 1471 1473 1475 1477 1479 1481 1484 1486 1488 1490 1492 1495 1497 1500 1502 1504 1506 1508 1509 1511 1513 1514 1516 1517 1519 1520 1521 1522 1523 1523 1523 1523 1523 1524 1523 1523 1523 1522
1462 1462 1463 1465 1466 1468 1469 1471 1473 1475 1477 1480 1482 1484 1486 1488 1490 1493 1495 1497 1499 1501 1503 1505 1506 1508 1510 1511 1512 1514 1515 1516 1517 1518 1518 1518 1518 1518 1519 1518 1518 1518 1517
1459 1459 1460 1462 1463 1464 1466 1468 1470 1471 1473 1476 1477 1479 1482 1484 1486 1489 1491 1493 1495 1496 1498 1500 1502 1503 1505 1506 1508 1509 1511 1511 1512 1513 1513 1513 1513 1514 1514 1514 1513 1513 1512
1457 1457 1458 1459 1460 1461 1463 1464 1466 1468 1469 1471 1473 1475 1477 1479 1482 1484 1486 1489 1490 1492 1493 1495 1497 1498 1500 1501 1503 1504 1505 1506 1507 1508 1508 1508 1508 1509 1509 1509 1508 1508 1507
1455 1455 1456 1456 1457 1458 1460 1461 1463 1464 1466 1467 1469 1471 1473 1475 1477 1480 1482 1484 1486 1488 1489 1491 1492 1494 1495 1497 1498 1498 1500 1501 1502 1502 1503 1503 1503 1504 1504 1504 1504 1503 1502
1453 1453 1453 1454 1454 1456 1457 1458 1459 1461 1462 1464 1465 1467 1469 1471 1473 1475 1477 1479 1481 1483 1485 1487 1488 1489 1491 1492 1493 1494 1494 1495 1497 1497 1497 1497 1498 1498 1499 1499 1498 1498 1497
1451 1451 1451 1451 1452 1453 1454 1455 1456 1457 1459 1460 1462 1464 1465 1467 1469 1471 1473 1475 1476 1478 1480 1482 1483 1485 1486 1487 1488 1489 1490 1491 1492 1492 1492 1492 1492 1492 1493 1493 1493 1493 1492
1450 1449 1449 1449 1449 1450 1451 1452 1453 1454 1455 1457 1458 1460 1462 1464 1466 1467 1469 1471 1472 1474 1475 1477 1478 1480 1482 1483 1484 1485 1485 1486 1487 1487 1487 1487 1487 1487 1487 1488 1488 1488 1488
1448 1447 1447 1446 1447 1447 1448 1449 1450 1451 1452 1453 1455 1456 1458 1460 1462 1463 1465 1467 1468 1470 1471 1473 1474 1476 1477 1479 1480 1480 1481 1482 1482 1482 1483 1482 1483 1482 1482 1483 1483 1483 1483
1445 1445 1444 1444 1444 1444 1445 1446 1447 1448 1449 1450 1452 1453 1455 1456 1458 1460 1461 1463 1464 1466 1467 1469 1470 1472 1473 1474 1475 1476 1477 1478 1478 1478 1478 1478 1478 1478 1478 1478 1478 1478 1478
1444 1443 1442 1442 1442 1442 1442 1443 1444 1445 1446 1447 1448 1450 1451 1453 1454 1456 1457 1459 1460 1462 1463 1465 1466 1468 1469 1470 1471 1472 1473 1473 1474 1474 1474 1474 1474 1474 1474 1474 1473 1473 1472
1442 1441 1440 1440 1439 1439 1440 1441 1441 1442 1443 1444 1446 1447 1448 1450 1451 1452 1453 1455 1457 1458 1459 1461 1462 1464 1465 1466 1467 1467 1468 1469 1469 1469 1470 1470 1470 1470 1469 1469 1469 1468 1467
1441 1440 1439 1438 1438 1438 1438 1439 1439 1440 1441 1442 1443 1445 1446 1447 1448 1449 1451 1452 1453 1455 1456 1457 1458 1460 1461 1462 1463 1463 1464 1465 1465 1465 1465 1465 1465 1465 1465 1465 1464 1464 1463
1440 1439 1438 1437 1437 1437 1437 1437 1437 1439 1439 1440 1441 1442 1443 1444 1445 1447 1448 1449 1450 1451 1453 1453 1455 1456 1457 1458 1459 1459 1460 1460 1461 1461 1461 1461 1461 1461 1460 1460 1459 1459 1458
1439 1438 1437 1436 1436 1436 1436 1436 1436 1436 1437 1437 1439 1440 1440 1441 1443 1444 1445 1446 1447 1448 1449 1451 1452 1453 1454 1454 1455 1455 1456 1456 1456 1456 1456 1456 1456 1456 1455 1455 1454 1454 1453
1439 1437 1436 1435 1435 1435 1435 1435 1435 1436 1436 1436 1437 1438 1439 1440 1441 1442 1442 1443 1444 1445 1447 1448 1449 1449 1450 1451 1451 1451 1451 1452 1452 1452 1452 1451 1451 1451 1451 1450 1450 1449 1449
1438 1437 1436 1435 1434 1434 1434 1434 1434 1435 1435 1435 1436 1436 1437 1438 1438 1439 1440 1441 1442 1443 1444 1444 1445 1445 1446 1447 1447 1447 1447 1447 1447 1447 1447 1447 1447 1447 1446 1446 1445 1444 1444
1438 1436 1435 1434 1434 1434 1433 1433 1433 1434 1434 1434 1435 1435 1436 1436 1436 1437 1437 1438 1439 1439 1440 1440 1441 1441 1442 1442 1443 1443 1443 1443 1443 1443 1443 1443 1442 1442 1442 1441 1441 1440 1439
1437 1436 1435 1434 1433 1433 1433 1432 1432 1433 1433 1433 1433 1434 1434 1434 1434 1435 1435 1436 1436 1436 1437 1437 1437 1437 1438 1438 1439 1439 1439 1439 1439 1439 1439 1438 1438 1438 1437 1437 1436 1436 1435
1436 1435 1434 1433 1433 1432 1432 1431 1431 1432 1432 1432 1432 1432 1432 1432 1432 1432 1433 1433 1433 1433 1433 1433 1433 1433 1434 1434 1434 1435 1435 1435 1435 1435 1434 1434 1433 1433 1433 1432 1432 1431 1430
1435 1434 1433 1432 1431 1431 1430 1430 1430 1430 1430 1430 1430 1430 1430 1430 1430 1430 1430 1430 1430 1430 1430 1430 1430 1430 1430 1430 1430 1430 1430 1430 1430 1430 1430 1429 1429 1428 1428 1427 1427 1426 1425
1434 1433 1432 1431 1430 1429 1429 1429 1429 1429 1429 1429 1429 1429 1429 1428 1428 1428 1427 1427 1427 1426 1426 1426 1426 1426 1426 1426 1426 1426 1426 1426 1426 1425 1425 1425 1424 1423 1423 1422 1422 1421 1421
1433 1432 1431 1430 1429 1428 1427 1427 1427 1427 1427 1427 1426 1426 1426 1426 1425 1425 1425 1424 1424 1423 1423 1423 1422 1422 1422 1422 1422 1422 1421 1421 1421 1421 1420 1420 1419 1419 1418 1417 1417 1416 1416